Regional Weather Roundup
Issued by NWS

Home | Current Version | Previous Version | Graphics & Text | Print | Product List | Glossary On
Versions: 1 2 3 4 5 6 7 8 9 10 11 12 13 14 15 16 17 18 19 20 21 22 23 24 25 26 27 28 29 30 31 32 33 34 35 36 37 38 39 40 41 42 43 44 45 46 47 48 49 50
000
ASUS43 KLMK 041710
RWRKY
KENTUCKY REGIONAL WEATHER ROUNDUP
NATIONAL WEATHER SERVICE LOUISVILLE KY
100 PM EDT FRI SEP 04 2015

NOTE "FAIR" INDICATES FEW OR NO CLOUDS BELOW 12,000 FEET
WITH NO SIGNIFICANT WEATHER AND/OR OBSTRUCTIONS TO VISIBILITY.

KYZ001>023-026-027-061>063-070>075-041800-
WESTERN AND SOUTH CENTRAL KENTUCKY

CITY           SKY/WX    TMP DP  RH WIND       PRES   REMARKS
PADUCAH        SUNNY     91  68  46 VRB3      30.03F HX  95
HENDERSON      SUNNY     91  68  46 W5        30.03F HX  95
OWENSBORO      SUNNY     93  69  45 VRB3      30.05F HX  98
HOPKINSVILLE   MOSUNNY   89  67  49 N5        30.04F HX  92
BOWLING GREEN  SUNNY     91  65  41 E5        30.05F HX  93
GLASGOW        SUNNY     90  62  38 CALM      30.06F HX  90
$$

KYZ024-025-028>034-038-045-046-053-041800-
NORTH CENTRAL KENTUCKY

CITY           SKY/WX    TMP DP  RH WIND       PRES   REMARKS
LOUISVILLE/SDF MOSUNNY   92  65  40 CALM      30.04F HX  94
LOUISVILLE/LOU SUNNY     91  66  43 CALM      30.05F HX  93
FORT KNOX      SUNNY     89  66  46 N3        30.05F HX  91
$$

KYZ035>037-039>044-047>052-055>060-089>105-041800-
NORTHEAST KENTUCKY

CITY           SKY/WX    TMP DP  RH WIND       PRES   REMARKS
LEXINGTON      SUNNY     89  64  43 VRB5      30.08S HX  90
COVINGTON      MOSUNNY   88  66  48 W3        30.07S HX  90
FRANKFORT      SUNNY     90  64  42 VRB3      30.06F HX  91
$$

KYZ054-064>069-076>088-106>120-041800-
SOUTHEAST KENTUCKY

CITY           SKY/WX    TMP DP  RH WIND       PRES   REMARKS
JACKSON        MOSUNNY   86  67  52 VRB3      30.11S
LONDON         MOSUNNY   90  65  43 VRB6      30.09F HX  92
SOMERSET       MOSUNNY   86  64  48 CALM      30.09F
MIDDLESBORO    SUNNY     85  68  56 E6        30.09F
MONTICELLO     SUNNY     89  68  49 NE3       30.10F HX  92
$$



USA.gov is the U.S. government's official web portal to all federal, state and local government web resources and services.